DW9923 Weather Reports


Display with metric or nautical units.
time (UTC)temp
F
wind
direction
speed
MPH
gust
MPH
rain 1hr
in
rain 24hr
in
rain mn
in
humidity
%
barometer
mb
20260831033839 73 298 0.0 0.0 0.00 0.00 0.00 69
20260831033329 74 298 0.0 0.0 0.00 0.00 0.00 68
20260831031537 75 298 0.0 0.0 0.00 0.00 0.00 66
20260831031020 76 298 0.0 0.0 0.00 0.00 0.00 66
20260831030506 76 298 0.0 0.0 0.00 0.00 0.00 64
20260831025955 77 299 0.0 0.0 0.00 0.00 0.00 64
20260831025450 77 299 0.0 0.0 0.00 0.00 0.00 63
20260831024330 78 299 0.0 0.0 0.00 0.00 0.00 62
20260831023208 79 298 0.0 0.0 0.00 0.00 0.00 60
20260831022713 80 298 0.0 0.0 0.00 0.00 0.00 60
20260831021532 81 299 0.0 0.0 0.00 0.00 0.00 58
20260831021025 81 299 0.0 0.0 0.00 0.00 0.00 57
20260831020534 82 299 0.0 0.0 0.00 0.00 0.00 56
20260831020015 82 298 0.0 1.0 0.00 0.00 0.00 56
20260831015508 83 299 0.0 1.0 0.00 0.00 0.00 55
20260831014953 83 299 0.0 3.0 0.00 0.00 0.00 55
20260831014453 84 298 1.0 3.0 0.00 0.00 0.00 54
20260831013940 84 299 1.0 4.0 0.00 0.00 0.00 53
20260831012825 85 298 2.0 4.0 0.00 0.00 0.00 52
20260831012315 86 299 1.0 4.0 0.00 0.00 0.00 52
20260831011804 86 299 1.0 4.0 0.00 0.00 0.00 51
20260831011244 87 299 2.0 4.0 0.00 0.00 0.00 51
20260831010748 87 299 2.0 5.0 0.00 0.00 0.00 50
20260831010246 88 299 1.0 5.0 0.00 0.00 0.00 50
20260831005742 88 299 0.0 7.0 0.00 0.00 0.00 49
20260831005227 88 299 0.0 7.0 0.00 0.00 0.00 50
20260831004717 88 299 1.0 7.0 0.00 0.00 0.00 50
20260831004215 89 298 3.0 7.0 0.00 0.00 0.00 48
20260831003719 89 302 3.0 6.0 0.00 0.00 0.00 48
20260831002540 90 294 2.0 6.0 0.00 0.00 0.00 47
20260831002027 90 303 2.0 6.0 0.00 0.00 0.00 47
20260831000916 91 297 2.0 6.0 0.00 0.00 0.00 46
20260831000417 92 295 1.0 8.0 0.00 0.00 0.00 45
20260830235923 92 309 2.0 8.0 0.00 0.00 0.00 46
20260830235415 92 336 3.0 8.0 0.00 0.00 0.00 45
20260830234924 92 289 2.0 8.0 0.00 0.00 0.00 44
20260830234420 93 306 2.0 9.0 0.00 0.00 0.00 43
20260830233250 94 300 2.0 9.0 0.00 0.00 0.00 42
20260830232148 94 296 1.0 7.0 0.00 0.00 0.00 42
20260830231631 94 344 1.0 4.0 0.00 0.00 0.00 43
20260830224559 96 140 0.0 1.0 0.00 0.00 0.00 36
20260830224042 96 146 0.0 3.0 0.00 0.00 0.00 36
20260830223541 96 146 0.0 3.0 0.00 0.00 0.00 37
20260830223045 95 148 0.0 3.0 0.00 0.00 0.00 36
20260830222543 95 149 0.0 3.0 0.00 0.00 0.00 37
20260830222047 95 92 0.0 3.0 0.00 0.00 0.00 37
20260830221548 95 159 0.0 3.0 0.00 0.00 0.00 37
20260830221036 95 0 0.0 3.0 0.00 0.00 0.00 37
20260830220544 95 138 0.0 3.0 0.00 0.00 0.00 37
20260830220045 95 107 0.0 4.0 0.00 0.00 0.00 38
20260830215536 94 84 1.0 4.0 0.00 0.00 0.00 38
20260830215018 94 310 1.0 6.0 0.00 0.00 0.00 40
20260830213833 93 312 2.0 6.0 0.00 0.00 0.00 40
20260830210132 94 292 0.0 6.0 0.00 0.00 0.00 40
20260830205631 93 300 0.0 6.0 0.00 0.00 0.00 41
20260830204447 94 19 0.0 5.0 0.00 0.00 0.00 40
20260830202641 93 115 0.0 6.0 0.00 0.00 0.00 41
20260830202137 93 167 0.0 6.0 0.00 0.00 0.00 41
20260830201619 92 313 0.0 6.0 0.00 0.00 0.00 43
20260830195824 94 158 0.0 3.0 0.00 0.00 0.00 41
20260830195310 95 112 0.0 3.0 0.00 0.00 0.00 40
20260830194801 96 220 0.0 3.0 0.00 0.00 0.00 39
20260830194307 96 88 0.0 2.0 0.00 0.00 0.00 40
20260830193759 96 95 0.0 3.0 0.00 0.00 0.00 40
20260830192008 95 28 0.0 3.0 0.00 0.00 0.00 40
20260830191510 95 153 0.0 3.0 0.00 0.00 0.00 41
20260830191018 95 50 0.0 3.0 0.00 0.00 0.00 40
20260830190525 94 238 0.0 3.0 0.00 0.00 0.00 40
20260830190021 94 150 0.0 0.0 0.00 0.00 0.00 41
20260830185505 94 150 0.0 5.0 0.00 0.00 0.00 41
20260830185000 94 150 0.0 2.0 0.00 0.00 0.00 41
20260830184454 94 288 0.0 1.0 0.00 0.00 0.00 42
20260830183330 92 306 0.0 5.0 0.00 0.00 0.00 43
20260830182212 91 263 0.0 1.0 0.00 0.00 0.00 44
20260830181714 91 209 0.0 3.0 0.00 0.00 0.00 43
20260830181202 90 236 0.0 1.0 0.00 0.00 0.00 44
20260830180038 89 193 0.0 2.0 0.00 0.00 0.00 45
20260830175519 88 306 0.0 5.0 0.00 0.00 0.00 46
20260830174356 88 306 1.0 6.0 0.00 0.00 0.00 47
20260830173838 88 300 1.0 6.0 0.00 0.00 0.00 47
20260830172732 87 315 0.0 2.0 0.00 0.00 0.00 48
20260830171608 85 317 0.0 3.0 0.00 0.00 0.00 51
20260830171115 84 317 0.0 3.0 0.00 0.00 0.00 53
20260830170621 83 318 0.0 4.0 0.00 0.00 0.00 57
20260830170120 82 318 0.0 4.0 0.00 0.00 0.00 60
20260830165610 81 318 1.0 4.0 0.00 0.00 0.00 62
20260830165058 80 319 0.0 4.0 0.00 0.00 0.00 64
20260830164605 79 321 0.0 3.0 0.00 0.00 0.00 68
20260830164109 78 62 0.0 1.0 0.00 0.00 0.00 70
20260830163553 77 349 0.0 2.0 0.00 0.00 0.00 73
20260830163054 76 349 0.0 2.0 0.00 0.00 0.00 75
20260830161934 74 355 0.0 0.0 0.00 0.00 0.00 82
20260830161417 73 355 0.0 0.0 0.00 0.00 0.00 85
20260830160925 72 355 0.0 0.0 0.00 0.00 0.00 88
20260830155748 69 355 0.0 1.0 0.00 0.00 0.00 92
20260830155249 68 355 0.0 0.0 0.00 0.00 0.00 93
20260830154120 66 355 0.0 0.0 0.00 0.00 0.00 93
20260830153627 66 355 0.0 0.0 0.00 0.00 0.00 93
20260830153130 65 355 0.0 0.0 0.00 0.00 0.00 93
20260830152614 65 355 0.0 0.0 0.00 0.00 0.00 92
20260830152057 64 355 0.0 0.0 0.00 0.00 0.00 92
20260830151558 64 355 0.0 0.0 0.00 0.00 0.00 92
20260830151051 63 355 0.0 0.0 0.00 0.00 0.00 92
20260830150534 63 355 0.0 0.0 0.00 0.00 0.00 92
20260830150025 62 355 0.0 0.0 0.00 0.00 0.00 91
20260830145527 62 355 0.0 0.0 0.00 0.00 0.00 91
20260830145009 62 355 0.0 0.0 0.00 0.00 0.00 91
20260830144450 62 355 0.0 0.0 0.00 0.00 0.00 91
20260830143942 61 355 0.0 0.0 0.00 0.00 0.00 90
20260830143430 61 28 0.0 0.0 0.00 0.00 0.00 90
20260830142925 61 28 0.0 0.0 0.00 0.00 0.00 89
20260830142424 61 28 0.0 0.0 0.00 0.00 0.00 89
20260830141251 60 28 0.0 0.0 0.00 0.00 0.00 88
20260830140756 60 28 0.0 0.0 0.00 0.00 0.00 88
20260830140249 60 28 0.0 0.0 0.00 0.00 0.00 88
20260830135753 60 28 0.0 0.0 0.00 0.00 0.00 87
20260830135251 61 28 0.0 0.0 0.00 0.00 0.00 88
20260830134746 61 28 0.0 0.0 0.00 0.00 0.00 87
20260830134251 61 28 0.0 0.0 0.00 0.00 0.00 88
20260830133743 61 308 0.0 0.0 0.00 0.00 0.00 88
20260830133235 61 308 0.0 0.0 0.00 0.00 0.00 87
20260830132738 61 308 0.0 0.0 0.00 0.00 0.00 87
20260830132227 61 308 0.0 0.0 0.00 0.00 0.00 87
20260830131713 61 308 0.0 0.0 0.00 0.00 0.00 87
20260830131207 61 308 0.0 0.0 0.00 0.00 0.00 87
20260830130653 61 308 0.0 0.0 0.00 0.00 0.00 87
20260830130144 61 308 0.0 0.0 0.00 0.00 0.00 87
20260830125626 61 308 0.0 0.0 0.00 0.00 0.00 87
20260830125113 61 308 0.0 0.0 0.00 0.00 0.00 87
20260830124623 61 308 0.0 0.0 0.00 0.00 0.00 87
20260830124106 62 308 0.0 0.0 0.00 0.00 0.00 87
20260830123600 62 308 0.0 0.0 0.00 0.00 0.00 87
20260830122434 62 308 0.0 0.0 0.00 0.00 0.00 86
20260830121925 62 308 0.0 0.0 0.00 0.00 0.00 86
20260830120753 62 308 0.0 0.0 0.00 0.00 0.00 86
20260830120247 62 308 0.0 0.0 0.00 0.00 0.00 86
20260830115744 62 308 0.0 0.0 0.00 0.00 0.00 86
20260830115229 62 308 0.0 0.0 0.00 0.00 0.00 86
20260830114101 62 308 0.0 0.0 0.00 0.00 0.00 86
20260830113543 62 308 0.0 0.0 0.00 0.00 0.00 86
20260830113031 63 308 0.0 0.0 0.00 0.00 0.00 86
20260830112532 63 308 0.0 0.0 0.00 0.00 0.00 86
20260830112033 63 308 0.0 0.0 0.00 0.00 0.00 86
20260830111525 63 308 0.0 0.0 0.00 0.00 0.00 86
20260830111029 63 308 0.0 0.0 0.00 0.00 0.00 86
20260830110521 63 308 0.0 0.0 0.00 0.00 0.00 86
20260830105404 63 308 0.0 0.0 0.00 0.00 0.00 85
20260830104854 63 308 0.0 0.0 0.00 0.00 0.00 85
20260830103728 63 308 0.0 0.0 0.00 0.00 0.00 85
20260830103227 63 308 0.0 0.0 0.00 0.00 0.00 85
20260830102710 64 308 0.0 0.0 0.00 0.00 0.00 86
20260830102153 64 308 0.0 0.0 0.00 0.00 0.00 85
20260830101650 64 308 0.0 0.0 0.00 0.00 0.00 85
20260830101159 64 308 0.0 0.0 0.00 0.00 0.00 85
20260830100655 64 308 0.0 0.0 0.00 0.00 0.00 85
20260830100200 64 308 0.0 0.0 0.00 0.00 0.00 84
20260830095523 64 308 0.0 0.0 0.00 0.00 0.00 84
20260830093731 64 308 0.0 0.0 0.00 0.00 0.00 84
20260830093220 65 308 0.0 0.0 0.00 0.00 0.00 83
20260830092724 65 308 0.0 0.0 0.00 0.00 0.00 83
20260830092205 65 308 0.0 0.0 0.00 0.00 0.00 83
20260830091055 65 308 0.0 0.0 0.00 0.00 0.00 83
20260830085931 65 308 0.0 0.0 0.00 0.00 0.00 83
20260830085425 65 308 0.0 0.0 0.00 0.00 0.00 83
20260830084926 66 308 0.0 0.0 0.00 0.00 0.00 83
20260830084414 66 308 0.0 0.0 0.00 0.00 0.00 83
20260830083904 66 308 0.0 0.0 0.00 0.00 0.00 83
20260830082744 66 308 0.0 0.0 0.00 0.00 0.00 82
20260830081556 66 308 0.0 0.0 0.00 0.00 0.00 82
20260830081104 66 308 0.0 0.0 0.00 0.00 0.00 82
20260830080608 67 308 0.0 0.0 0.00 0.00 0.00 82
20260830080118 67 308 0.0 0.0 0.00 0.00 0.00 81
20260830075622 67 308 0.0 0.0 0.00 0.00 0.00 81
20260830075117 67 308 0.0 0.0 0.00 0.00 0.00 81
20260830074603 67 308 0.0 0.0 0.00 0.00 0.00 82
20260830074046 67 308 0.0 0.0 0.00 0.00 0.00 81
20260830072901 68 308 0.0 0.0 0.00 0.00 0.00 81
20260830072358 68 308 0.0 0.0 0.00 0.00 0.00 81
20260830071857 68 308 0.0 0.0 0.00 0.00 0.00 81
20260830071404 68 308 0.0 0.0 0.00 0.00 0.00 80
20260830070847 68 308 0.0 0.0 0.00 0.00 0.00 80
20260830070348 68 308 0.0 0.0 0.00 0.00 0.00 80
20260830065201 69 308 0.0 0.0 0.00 0.00 0.00 80
20260830064707 69 308 0.0 0.0 0.00 0.00 0.00 80
20260830064208 69 308 0.0 0.0 0.00 0.00 0.00 79
20260830063651 69 308 0.0 0.0 0.00 0.00 0.00 79
20260830063158 69 308 0.0 0.0 0.00 0.00 0.00 79
20260830062708 69 308 0.0 0.0 0.00 0.00 0.00 79
20260830061555 70 308 0.0 0.0 0.00 0.00 0.00 78
20260830061049 70 308 0.0 0.0 0.00 0.00 0.00 78
20260830060543 70 308 0.0 0.0 0.00 0.00 0.00 78
20260830060025 70 308 0.0 0.0 0.00 0.00 0.00 78
20260830055513 70 308 0.0 0.0 0.00 0.00 0.00 77
20260830054959 71 308 0.0 0.0 0.00 0.00 0.00 77
20260830054449 71 308 0.0 0.0 0.00 0.00 0.00 76
20260830053957 71 308 0.0 0.0 0.00 0.00 0.00 76
20260830053504 71 308 0.0 0.0 0.00 0.00 0.00 75
20260830052945 71 308 0.0 0.0 0.00 0.00 0.00 75
20260830052453 72 308 0.0 0.0 0.00 0.00 0.00 75
20260830051950 72 308 0.0 0.0 0.00 0.00 0.00 75
20260830051458 72 308 0.0 0.0 0.00 0.00 0.00 74
20260830050954 72 308 0.0 0.0 0.00 0.00 0.00 74
20260830045849 73 308 0.0 0.0 0.00 0.00 0.00 73
20260830045329 73 308 0.0 0.0 0.00 0.00 0.00 73
20260830044814 73 308 0.0 0.0 0.00 0.00 0.00 72
20260830043653 74 308 0.0 0.0 0.00 0.00 0.00 71
20260830043133 74 308 0.0 0.0 0.00 0.00 0.00 71
20260830042621 75 308 0.0 0.0 0.00 0.00 0.00 70
20260830042110 75 308 0.0 0.0 0.00 0.00 0.00 70
20260830041601 75 308 0.0 0.0 0.00 0.00 0.00 69
20260830041041 76 308 0.0 0.0 0.00 0.00 0.00 68
20260830040536 76 308 0.0 0.0 0.00 0.00 0.00 68
20260830040016 76 308 0.0 0.0 0.00 0.00 0.00 67
20260830035506 77 308 0.0 0.0 0.00 0.00 0.00 66